{"data":{"norad_id":69014,"intl_designator":"2026-100AL","name":"CAS500-2 RIDESHARE OBJE*","alt_names":[],"object_type":"PAYLOAD","status":"ACTIVE","operator":null,"country":"TBD","launch_date":"2026-05-03","launch_site_code":"AFWTR","launch_vehicle":null,"mission":null,"orbit_class":"UNKNOWN","rcs_meters":null,"size_class":null,"mass_kg":null,"dimensions":null,"purposes":[],"wikipedia_slug":null,"has_3d_model":false,"image_url":null,"decayed_at":null,"tle_current":{"epoch":"2026-05-24T23:29:46.806144Z","epoch_age_seconds":86931,"freshness":"FRESH","line1":"1 69014U 26100AL  26144.97901396  .00003347  00000+0  15419-3 0  9999","line2":"2 69014  97.4089  43.2532 0007422 127.6500 232.5410 15.20955356  3285","mean_motion":15.20955356,"eccentricity":0.0007422,"inclination_deg":97.4089,"raan_deg":43.2532,"arg_perigee_deg":127.65,"mean_anomaly_deg":232.541,"bstar":0.00015419,"rev_number":328,"period_min":94.677335157759,"perigee_km":497.85047996204,"apogee_km":508.06477682843,"semimajor_km":6881.0946283952,"source":"CELESTRAK","updated_at":"2026-05-25T13:38:09.040164Z"}}}